Regional Weather Roundup
Issued by NWS Wakefield, VA

Home | Current Version | Previous Version | Text Only | Print | Product List | Glossary On
Versions: 1 2 3 4 5 6 7 8 9 10 11 12 13 14 15 16 17 18 19 20 21 22 23 24 25 26 27 28 29 30 31 32 33 34 35 36 37 38 39 40 41 42 43 44 45 46 47 48 49 50
000
ASUS41 KAKQ 290715
RWRAKQ

REGIONAL WEATHER ROUNDUP
NATIONAL WEATHER SERVICE WAKEFIELD VA
300 AM EDT THU JUN 29 2017

Note: "fair" indicates few or no clouds below 12,000 feet with no
significant weather and/or obstructions to visibility. * = Denotes
station may not report precipitation (e.g., rain,snow,etc.),
thunder or fog.

VAZ042-051-052>054-056-290800-
NORTHERN VIRGINIA

CITY           SKY/WX    TMP DP  RH WIND       PRES   REMARKS
WASH NATIONAL  CLEAR     69  59  70 S10       30.16S
DULLES         MOCLDY    62  53  72 S7        30.16R
FORT BELVOIR   CLEAR     64  57  77 SE3       30.15F
QUANTICO       PTCLDY    68  59  73 SW5       30.17S
FREDERICKSBRG* CLEAR     64  58  81 S5        30.15F
STAFFORD*      CLEAR     59  57  91 CALM      30.20S
WARRENTON      PTCLDY    60  53  76 CALM      30.16S
CULPEPER*      CLOUDY    59  56  91 CALM      30.17S
MANASSAS*      PTCLDY    58  55  90 CALM      30.17R
LEESBURG*      PTCLDY    64  57  77 CALM      30.16S
WINCHESTER     MOCLDY    61  52  72 SW5       30.15S
FRONT ROYAL*   CLOUDY    57  54  88 CALM      30.14S
LURAY*         SUNNY     63  54  72 SW5       30.16S
$$

VAZ048-049-060>072-079>083-290800-
CENTRAL AND SOUTH CENTRAL VIRGINIA

CITY           SKY/WX    TMP DP  RH WIND       PRES   REMARKS
RICHMOND       PTCLDY    63  59  87 S6        30.18S
CHESTERFIELD*  NOT AVBL
PETERSBURG*    CLOUDY    55  55  99 CALM      30.19S
HANOVER        CLEAR     64  56  75 S3        30.19S
TAPPAHANNOCK*  CLEAR     61  51  70 S3        30.19R
QUINTON*       FAIR      62  60  94 MISG      30.18S
CHARLOTTSVILLE CLEAR     64  57  78 SW3       30.16F HAZE
GORDONSVILLE*  MOSUNNY   57  56  96 CALM      30.16F
ORANGE*        CLEAR     55  54  94 CALM      30.17S
LOUISA*        CLEAR     57  55  94 CALM      30.16S
BUMPASS*       FAIR      59  56  91 CALM      30.17S
FARMVILLE*     PTCLDY    59  56  90 CALM      30.17R
CREWE*         FAIR      56  52  87 CALM      30.18R
FORT PICKETT*  FAIR      61  55  82 CALM      30.19R
CHASE CITY*    FAIR      59  59  99 CALM      30.19R
CLARKSVILLE*   FAIR      61  59  94 S5        30.19S
SOUTH HILL*    CLOUDY    58  57  96 CALM      30.25S
LAWRENCEVILLE* FAIR      61  58  88 CALM      30.19S
EMPORIA*       CLOUDY    57  55  94 CALM      30.20F
$$

VAZ088>098-290800-
SOUTHEAST VIRGINIA

CITY           SKY/WX    TMP DP  RH WIND       PRES   REMARKS
NORFOLK        CLOUDY    66  61  84 S6        30.19S
VIRGINIA BEACH CLOUDY    62  56  80 CALM      30.18S
NORFOLK NAVAL  CLOUDY    68  60  75 S5        30.20S
WEST POINT*    CLOUDY    65  59  80 SE3       30.20S
SALUDA*        FAIR      65  59  80 S6        30.18S
NEWPORT NEWS   CLOUDY    62  58  86 CALM      30.19S
LANGLEY AFB    CLOUDY    68  62  81 S6        30.18F
FORT EUSTIS    CLOUDY    69  62  76 S8        30.16S
WILLIAMSBURG*  CLOUDY    70  63  78 S5        30.20S
HR EXEC AP*    NOT AVBL
FRANKLIN*      CLEAR     63  61  94 SE3       30.19F
US460-WAKEFLD  CLOUDY    63  59  87 CALM      30.19S
$$

VAZ020-022-025-037-045-290800-
WEST CENTRAL AND SOUTHWEST VIRGINIA

CITY           SKY/WX    TMP DP  RH WIND       PRES   REMARKS
STAUNTON*      PTCLDY    55  52  89 CALM      30.20S
WAYNESBORO*    SUNNY     59  55  84 CALM      30.19S
HOT SPRINGS VA CLEAR     59  46  63 SW15G23   30.26F
LYNCHBURG      CLOUDY    59  55  87 CALM      30.19F
DANVILLE       CLOUDY    58  58 100 CALM      30.19S
SOUTH BOSTON*  FAIR      57  56  95 CALM      30.18S
MARTINSVILLE   CLOUDY    56  55  97 CALM      30.22S
ROANOKE        CLOUDY    63  58  83 CALM      30.21S
BLACKSBURG     CLOUDY    60  55  84 CALM      30.25F
DUBLIN*        CLOUDY    59  54  81 CALM      30.24S
MARION*        CLOUDY    64  54  68 W5        30.26R
HILLSVILLE*    CLOUDY    62  51  67 CALM      30.24S
RICHLANDS*     FAIR      66  13  13 S5        30.22F
WISE*          PTCLDY    64  54  68 CALM      30.22S
ABINGDON*      CLOUDY    63  58  85 CALM      30.21S
$$

MDZ021>025-VAZ099-100-290800-
SOUTHERN MARYLAND AND THE DELMARVA PENINSULA

CITY           SKY/WX    TMP DP  RH WIND       PRES   REMARKS
PATUXENT RIVER CLEAR     69  53  56 SW9       30.17R
BAY BRIDGE APT CLEAR     72  57  60 S8        30.16S
LEONARDTOWN    CLEAR     64  54  68 SW5       30.19R
DOVER          PTCLDY    65  63  93 S7        30.16R
GEORGETOWN     PTCLDY    63  55  75 SW5       30.18S
EASTON         CLEAR     65  58  77 S3        30.20S
CAMBRIDGE      CLEAR     63  59  88 CALM      30.17S
SALISBURY      CLEAR     62  58  86 S5        30.18S
OCEAN CITY     CLEAR     60  58  92 CALM      30.18F
WALLOPS ISLAND CLEAR     66  61  84 S9        30.19S
ACCOMACK*      CLEAR     62  58  88 S5        30.19S
$$

NCZ012>017-030>032-290800-
NORTH CENTRAL AND EASTERN NORTH CAROLINA

CITY           SKY/WX    TMP DP  RH WIND       PRES   REMARKS
ROANOKE RAPIDS FAIR      59  59 100 CALM      30.19F
RALEIGH        MOCLDY    68  57  68 S3        30.20S
ELIZABETH CITY PTCLDY    64  62  93 S5        30.19F
AHOSKIE*         N/A     61  60  97 CALM      30.19F
EDENTON*       PTCLDY    66  63  89 CALM      30.20S
CURRITUCK*     PTCLDY    65  65  99 CALM      30.20S
KILL DEVIL HLS PTCLDY    68  63  83 CALM      30.19S
MANTEO         PTCLDY    63  61  95 CALM      30.20S
CAPE HATTERAS  NOT AVBL
TARBORO*       NOT AVBL
GOLDSBORO      CLEAR     64  63  99 CALM      30.17F
WASHINGTON       N/A    N/A N/A N/A CALM      30.19F
GREENVILLE     PTCLDY    63  61  94 CALM      30.20S
NEW BERN       PTCLDY    62  61  96 CALM      30.20F
WILMINGTON     CLEAR     63  61  93 CALM      30.18S
$$

VAZ048-290800-
ELSEWHERE

CITY           SKY/WX    TMP DP  RH WIND       PRES   REMARKS
HARRISBURG PA  CLOUDY    69  54  58 VRB7      30.12S
BALTIMORE      MOCLDY    65  57  75 S3        30.16R
ANNAPOLIS      CLEAR     66  59  78 S6        30.15S
ANDREWS AFB    CLEAR     64  56  74 S7        30.16R
PHILADELPHIA   MOCLDY    68  56  65 SW8       30.16S
HENDERSON NC   CLEAR     58  54  84 S3        30.20S
GREENSBORO     CLEAR     65  58  78 S5        30.18S
ROCKY MOUNT    PTCLDY    61  61 100 CALM      30.19S
$$

VAZ100-290800-
MARINE

STATION/POSITION TIME  TEMP    WIND        PRES    WAVE   SWELL
                       AIR SEA DIR/SP/G            HT/PER HT/PER
                 (UTC) (F)     (DEG/KT/KT) (MB)    (FT/S) (FT/S)
BRANDYWINE LGT   0648          230/ 15/ 17   N/A
CAPE MAY NJ      0648   65 68  210/  6/  9 1021.5S
LEWES DE         0648   66 70  220/  6/  9 1021.6F
15NM E FENWICK I 0650   69 68  200/ 10/ 12 1022.2F   1/ 3   2/12
OCEAN-CITY-INLET 0648   68 68  220/  9/ 11 1022.1F
WACHAPREAGUE VA  0648   71 76  170/ 11/ 13 1021.9S
THOMAS POINT MD  0700   71 76  210/ 18/ 21   N/A
GOOSES REEF MD   0700   72 76  210/ 16/ 17 1022.4    2/ 3
COVE POINT MD    0648   70     210/ 10/ 12 1022.3R
SOLOMONS ISLAND  0648          210/ 11/ 13   N/A
BISHOPS HEAD MD  0648   74 75  200/ 14/ 17 1021.5S
PINEY POINT MD   0648          220/ 14/ 16   N/A
POTOMAC MD       0700   71 78  220/ 14/ 17 1021.0    2/ 3
CAMBRIDGE MD     0648   67 80              1022.3R
LEWISETTA VA     0648   69 77  220/ 10/ 12 1021.5F
RAPPAHANNOCK LGT 0648          180/ 15/ 16 1022.4F
STINGRAY PT      0700   72 78  220/ 14/ 16 1021.4    2/ 2
YORK RVR RNG VA  0648   72     190/ 13/ 15 1022.1F
YORKTOWN VA      0648   68 79  190/  5/  7 1021.7S
JAMESTOWN VA     0700   67 81  190/  8/ 10   N/A
DOMINION TERM VA 0648   70     180/  9/ 12 1022.3S
KIPTOPEKE VA     0648      75  180/ 13/ 14   N/A
CHES BAY BRIDGE  0648   70 71  190/ 10/ 13 1022.1R
CAPE HENRY VA    0648   68     170/  7/ 10   N/A
WILLOUBY STN VA  0648   70     180/ 12/ 14 1021.8S
S CRANEY ISL VA  0648   71     190/  7/ 10 1022.0S
CAPE HENRY BUOY  0630      71                N/A     2/ 3
1ST LANDING BUOY 0700   71 74              1022.2    1/ 2
CAPE CHARLES BUO 0651      70                N/A     2/ 3
64NM E OF VA BCH 0650   72 73  160/  6/  8 1023.0F   2/10   2/10
DUCK PIER NC     0648   72 73  150/  8/  8 1022.0F
44100 DUCK FRF   0635      72                N/A     2/ 5
OREGON INLET NC  0648          120/  2/  3   N/A
HATTERAS NC      0648   73 78   80/  4/  5 1022.2S
DIAMOND SHLS NC  0650   79 83  120/  2/  4 1022.2F   2/ 7   2/ 7
CAPE LOOKOUT NC  0600   77      10/  5/  5 1021.9F
$$



USA.gov is the U.S. government's official web portal to all federal, state and local government web resources and services.